When you browse on this site, cookies collect data to enhance your experience and personalize the content and advertising you see.
Visit our Privacy Policy to learn more. By continuing to use the site, you agree to this use of cookies and data.
  • en Suisse
  • Liste des pays
  • À 7 jours
  • Température de l'eau
  • Carte satellitaire
  • Carte météo
  • Widgets météo
  • user-avatar
    Se connecter

    Météo par heure à Ho Chi Minh

    Ce jour, 17 Juillet, Mercredi

    Heure Température Précipitation Vent Pression Humidité
    00:00 +27°C° 0.5 mm 3 m/s 754 mmHg 91%
    01:00 +27°C° 0 mm 2 m/s 754 mmHg 92%
    02:00 +27°C° 0 mm 2 m/s 754 mmHg 91%
    03:00 +27°C° 0 mm 1 m/s 753 mmHg 91%
    04:00 +27°C° 0 mm 1 m/s 753 mmHg 91%
    05:00 +27°C° 1.2 mm 1 m/s 753 mmHg 90%
    06:00 +28°C° 1.2 mm 1 m/s 753 mmHg 90%
    07:00 +28°C° 1.2 mm 2 m/s 753 mmHg 89%
    08:00 +28°C° 2.7 mm 2 m/s 754 mmHg 87%
    09:00 +29°C° 2.7 mm 3 m/s 754 mmHg 86%
    10:00 +29°C° 2.7 mm 4 m/s 754 mmHg 84%
    11:00 +30°C° 1.4 mm 4 m/s 753 mmHg 82%
    12:00 +30°C° 1.4 mm 4 m/s 753 mmHg 80%
    13:00 +32°C° 1.4 mm 5 m/s 752 mmHg 78%
    14:00 +32°C° 1 mm 5 m/s 752 mmHg 78%
    15:00 +30°C° 1 mm 5 m/s 751 mmHg 78%
    16:00 +30°C° 1 mm 5 m/s 751 mmHg 79%
    17:00 +30°C° 3 mm 5 m/s 752 mmHg 82%
    18:00 +29°C° 3 mm 5 m/s 752 mmHg 85%
    19:00 +28°C° 3 mm 4 m/s 753 mmHg 88%
    20:00 +28°C° 4.9 mm 4 m/s 753 mmHg 90%
    21:00 +27°C° 4.9 mm 4 m/s 754 mmHg 92%
    22:00 +27°C° 4.9 mm 3 m/s 754 mmHg 94%
    23:00 +27°C° 0.7 mm 3 m/s 754 mmHg 94%

    Demain, 18 Juillet, Jeudi

    Heure Température Précipitation Vent Pression Humidité
    00:00 +27°C° 0.7 mm 3 m/s 754 mmHg 93%
    01:00 +27°C° 0.7 mm 2 m/s 754 mmHg 92%
    02:00 +27°C° 0.1 mm 2 m/s 753 mmHg 92%
    03:00 +27°C° 0.1 mm 2 m/s 753 mmHg 92%
    04:00 +27°C° 0.1 mm 1 m/s 752 mmHg 93%
    05:00 +27°C° 0.1 mm 2 m/s 753 mmHg 91%
    06:00 +27°C° 0.1 mm 2 m/s 753 mmHg 90%
    07:00 +27°C° 0.1 mm 2 m/s 754 mmHg 89%
    08:00 +28°C° 0.1 mm 2 m/s 754 mmHg 87%
    09:00 +29°C° 0.1 mm 2 m/s 754 mmHg 84%
    10:00 +29°C° 0.1 mm 2 m/s 754 mmHg 81%
    11:00 +30°C° 0.8 mm 3 m/s 754 mmHg 78%
    12:00 +32°C° 0.8 mm 4 m/s 753 mmHg 75%
    13:00 +33°C° 0.8 mm 5 m/s 753 mmHg 73%
    14:00 +32°C° 0.1 mm 5 m/s 752 mmHg 74%
    15:00 +30°C° 0.1 mm 5 m/s 752 mmHg 76%
    16:00 +30°C° 0.1 mm 4 m/s 752 mmHg 78%
    17:00 +29°C° 0.2 mm 4 m/s 752 mmHg 80%
    18:00 +29°C° 0.2 mm 3 m/s 753 mmHg 82%
    19:00 +28°C° 0.2 mm 3 m/s 753 mmHg 84%
    20:00 +28°C° 0 mm 3 m/s 754 mmHg 85%
    21:00 +28°C° 0 mm 3 m/s 754 mmHg 85%
    22:00 +28°C° 0 mm 3 m/s 755 mmHg 86%
    23:00 +27°C° 0 mm 3 m/s 754 mmHg 87%

    Après-demain, 19 Juillet, Vendredi

    Heure Température Précipitation Vent Pression Humidité
    00:00 +27°C° 0 mm 3 m/s 754 mmHg 88%
    01:00 +27°C° 0 mm 2 m/s 754 mmHg 88%
    02:00 +27°C° 0.1 mm 2 m/s 753 mmHg 89%
    03:00 +27°C° 0.1 mm 2 m/s 753 mmHg 89%
    04:00 +27°C° 0.1 mm 2 m/s 753 mmHg 90%
    05:00 +27°C° 0.5 mm 2 m/s 753 mmHg 90%
    06:00 +27°C° 0.5 mm 2 m/s 754 mmHg 90%
    07:00 +27°C° 0.5 mm 2 m/s 754 mmHg 90%
    08:00 +28°C° 1 mm 2 m/s 754 mmHg 87%
    09:00 +29°C° 1 mm 2 m/s 755 mmHg 83%
    10:00 +30°C° 1 mm 3 m/s 755 mmHg 79%
    11:00 +31°C° 1.6 mm 3 m/s 754 mmHg 78%
    12:00 +32°C° 1.6 mm 4 m/s 754 mmHg 77%
    13:00 +32°C° 1.6 mm 4 m/s 753 mmHg 76%
    14:00 +32°C° 0.8 mm 4 m/s 753 mmHg 76%
    15:00 +32°C° 0.8 mm 4 m/s 752 mmHg 77%
    16:00 +31°C° 0.8 mm 3 m/s 752 mmHg 78%
    17:00 +30°C° 1.7 mm 3 m/s 753 mmHg 81%
    18:00 +29°C° 1.7 mm 3 m/s 753 mmHg 84%
    19:00 +28°C° 1.7 mm 2 m/s 754 mmHg 87%
    20:00 +28°C° 0.1 mm 2 m/s 754 mmHg 87%
    21:00 +28°C° 0.1 mm 2 m/s 755 mmHg 87%
    22:00 +28°C° 0.1 mm 2 m/s 755 mmHg 88%
    23:00 +28°C° 0 mm 2 m/s 755 mmHg 88%

    20 Juillet, Samedi

    Heure Température Précipitation Vent Pression Humidité
    00:00 +27°C° 0 mm 2 m/s 755 mmHg 89%
    01:00 +27°C° 0 mm 2 m/s 754 mmHg 90%
    02:00 +27°C° 0 mm 2 m/s 754 mmHg 90%
    03:00 +27°C° 0 mm 2 m/s 754 mmHg 91%
    04:00 +27°C° 0 mm 1 m/s 753 mmHg 91%
    05:00 +27°C° 0.1 mm 2 m/s 754 mmHg 90%
    06:00 +28°C° 0.1 mm 2 m/s 754 mmHg 89%
    07:00 +28°C° 0.1 mm 2 m/s 754 mmHg 88%
    08:00 +29°C° 0.4 mm 2 m/s 755 mmHg 83%
    09:00 +31°C° 0.4 mm 3 m/s 755 mmHg 78%
    10:00 +33°C° 0.4 mm 3 m/s 755 mmHg 73%
    11:00 +33°C° 1.3 mm 4 m/s 754 mmHg 73%
    12:00 +34°C° 1.3 mm 4 m/s 754 mmHg 72%
    13:00 +34°C° 1.3 mm 4 m/s 753 mmHg 71%
    14:00 +33°C° 2.2 mm 4 m/s 753 mmHg 73%
    15:00 +33°C° 2.2 mm 5 m/s 753 mmHg 75%
    16:00 +32°C° 2.2 mm 5 m/s 752 mmHg 77%
    17:00 +32°C° 2.6 mm 5 m/s 753 mmHg 80%
    18:00 +30°C° 2.6 mm 4 m/s 753 mmHg 83%
    19:00 +29°C° 2.6 mm 4 m/s 754 mmHg 86%
    20:00 +28°C° 0.3 mm 4 m/s 754 mmHg 87%
    21:00 +28°C° 0.3 mm 4 m/s 755 mmHg 88%
    22:00 +28°C° 0.3 mm 3 m/s 756 mmHg 89%
    23:00 +28°C° 0 mm 3 m/s 755 mmHg 89%

    21 Juillet, Dimanche

    Heure Température Précipitation Vent Pression Humidité
    00:00 +27°C° 0 mm 3 m/s 755 mmHg 89%
    01:00 +27°C° 0 mm 3 m/s 754 mmHg 89%
    02:00 +27°C° 0 mm 2 m/s 754 mmHg 89%
    03:00 +27°C° 0 mm 2 m/s 754 mmHg 89%
    04:00 +27°C° 0 mm 2 m/s 754 mmHg 89%
    05:00 +27°C° 0 mm 1 m/s 754 mmHg 89%
    06:00 +27°C° 0 mm 1 m/s 754 mmHg 88%
    07:00 +28°C° 0 mm 1 m/s 754 mmHg 88%
    08:00 +29°C° 0.1 mm 2 m/s 755 mmHg 82%
    09:00 +31°C° 0.1 mm 2 m/s 755 mmHg 76%
    10:00 +33°C° 0.1 mm 3 m/s 755 mmHg 69%
    11:00 +34°C° 0.7 mm 3 m/s 754 mmHg 68%
    12:00 +34°C° 0.7 mm 3 m/s 754 mmHg 67%
    13:00 +35°C° 0.7 mm 3 m/s 753 mmHg 65%
    14:00 +34°C° 1.8 mm 3 m/s 753 mmHg 67%
    15:00 +34°C° 1.8 mm 3 m/s 753 mmHg 68%
    16:00 +34°C° 1.8 mm 3 m/s 752 mmHg 70%
    17:00 +33°C° 1.5 mm 3 m/s 753 mmHg 74%
    18:00 +30°C° 1.5 mm 3 m/s 753 mmHg 79%
    19:00 +29°C° 1.5 mm 2 m/s 753 mmHg 83%
    20:00 +29°C° 0.1 mm 2 m/s 754 mmHg 84%
    21:00 +29°C° 0.1 mm 2 m/s 754 mmHg 85%
    22:00 +28°C° 0.1 mm 2 m/s 755 mmHg 86%
    23:00 +28°C° 0 mm 2 m/s 755 mmHg 87%

    22 Juillet, Lundi

    Heure Température Précipitation Vent Pression Humidité
    00:00 +28°C° 0 mm 2 m/s 754 mmHg 88%
    01:00 +28°C° 0 mm 2 m/s 754 mmHg 89%
    02:00 +27°C° 0.1 mm 2 m/s 754 mmHg 90%
    03:00 +27°C° 0.1 mm 2 m/s 754 mmHg 90%
    04:00 +27°C° 0.1 mm 1 m/s 753 mmHg 91%
    05:00 +27°C° 0.6 mm 1 m/s 754 mmHg 91%
    06:00 +28°C° 0.6 mm 2 m/s 754 mmHg 90%
    07:00 +28°C° 0.6 mm 2 m/s 754 mmHg 89%
    08:00 +29°C° 1.4 mm 3 m/s 755 mmHg 85%
    09:00 +30°C° 1.4 mm 4 m/s 755 mmHg 81%
    10:00 +32°C° 1.4 mm 5 m/s 755 mmHg 77%
    11:00 +32°C° 0.9 mm 5 m/s 754 mmHg 75%
    12:00 +33°C° 0.9 mm 5 m/s 754 mmHg 73%
    13:00 +33°C° 0.9 mm 5 m/s 753 mmHg 71%
    14:00 +33°C° 0.5 mm 5 m/s 753 mmHg 72%
    15:00 +33°C° 0.5 mm 6 m/s 752 mmHg 72%
    16:00 +32°C° 0.5 mm 6 m/s 752 mmHg 73%
    17:00 +30°C° 0.9 mm 5 m/s 752 mmHg 77%
    18:00 +29°C° 0.9 mm 4 m/s 753 mmHg 81%
    19:00 +28°C° 0.9 mm 3 m/s 753 mmHg 84%
    20:00 +28°C° 0 mm 3 m/s 754 mmHg 85%
    21:00 +28°C° 0 mm 2 m/s 754 mmHg 86%
    22:00 +27°C° 0 mm 1 m/s 755 mmHg 87%
    23:00 +27°C° 0 mm 1 m/s 755 mmHg 87%
    Voir plus